Theta_e
316 320 322 320 321 321 322 326 326 329 328 324 326 320 315 317 317 318 321 321 319 321 321 318 319 318 318 318 318 317 318 323 324 325 323 326 326 324 327 323 326 325 325 332 333 337 339 341 341 341 342 342 343 342 342 341 341 342 341 340 336 337 338 337 336 335 334 335 334 334 334 334 334 335 336 336 337 337 337 337 338 338 339 338 338 337 334 334 333 332 333 332 331 329 325 321 318
318 322 323 320 321 319 323 329 328 332 329 317 319 318 313 317 318 321 323 324 323 318 319 319 320 320 319 318 317 318 318 320 320 322 325 324 325 325 324 324 326 324 326 331 333 335 338 340 340 341 341 342 342 341 342 341 342 342 341 340 336 335 338 337 336 335 335 335 333 333 334 334 334 334 334 335 336 336 336 336 337 337 338 338 337 336 335 334 334 334 333 332 329 326 323 321 318
319 322 321 320 321 320 330 330 325 333 328 315 319 323 315 316 321 323 325 328 325 317 320 319 318 320 319 320 318 318 320 320 318 324 330 323 324 324 321 325 325 326 326 329 333 334 336 337 339 341 340 341 342 341 342 341 342 342 341 340 336 335 337 337 335 335 336 336 333 334 335 336 335 334 334 334 336 336 336 336 337 338 337 337 336 334 333 333 331 330 329 328 328 325 321 319 316
320 322 319 319 321 326 347 339 334 339 326 318 319 323 321 319 323 325 325 325 322 317 321 320 318 318 318 322 319 318 321 322 316 322 331 322 323 322 321 325 325 327 326 328 332 333 336 336 338 340 340 340 340 341 340 341 342 342 341 341 337 334 336 336 335 334 335 335 334 336 336 337 337 336 335 334 336 336 337 336 337 337 336 335 333 331 330 329 328 325 323 321 321 321 317 314 313
320 322 317 318 322 326 342 334 334 333 320 323 317 318 328 326 324 324 326 323 319 319 320 320 319 317 316 321 319 321 323 321 316 316 323 322 321 321 322 325 325 328 327 330 332 333 335 335 338 339 340 339 340 341 340 341 342 341 341 341 338 334 335 336 335 334 334 335 335 337 337 337 338 338 336 335 337 337 337 336 336 336 334 333 330 329 328 328 327 325 323 319 315 313 310 309 308
320 320 318 317 317 318 329 323 322 324 324 329 318 320 327 324 323 320 325 323 320 319 318 318 318 318 318 320 318 320 321 320 319 318 321 322 321 321 323 323 325 328 328 331 333 333 334 336 338 338 340 339 339 340 340 341 342 342 340 341 339 334 335 336 335 334 334 335 336 337 337 338 338 337 337 337 337 336 336 334 335 335 334 332 329 329 328 328 328 326 324 320 311 306 305 304 304
317 318 323 322 319 321 333 327 325 326 322 322 317 321 323 320 318 317 321 322 320 317 317 318 317 318 319 318 316 317 316 318 321 321 322 323 322 322 323 323 325 328 329 332 334 334 334 335 337 338 340 339 340 340 340 341 341 342 340 340 339 335 334 336 336 334 334 335 337 337 337 338 338 337 337 337 336 334 334 334 334 334 333 332 329 328 327 327 326 324 323 319 308 302 301 301 301
318 320 326 332 333 335 340 328 329 329 317 317 318 319 322 320 315 317 321 318 318 318 318 320 319 319 318 316 320 319 314 318 321 320 322 324 323 322 322 323 325 328 331 332 334 336 334 335 336 338 339 340 341 340 340 340 341 341 340 339 339 337 333 334 337 335 334 335 337 337 337 338 337 338 338 337 335 332 332 332 332 332 331 330 329 326 326 325 325 325 324 319 306 300 300 300 300
317 319 324 331 330 333 337 326 323 324 321 322 320 321 323 320 316 317 320 318 317 319 319 319 318 318 318 318 323 321 315 319 321 320 322 323 322 323 322 323 326 327 331 333 335 336 335 335 335 337 338 339 341 341 340 339 340 341 340 338 339 338 333 333 336 335 334 334 337 337 337 337 337 338 338 336 335 332 331 330 330 331 329 327 326 326 325 325 326 326 326 320 305 299 300 299 300
318 319 324 331 328 324 325 323 322 322 323 321 318 322 322 316 316 318 319 318 316 318 318 316 317 319 319 320 323 319 316 319 320 322 322 322 322 323 324 324 327 328 330 333 335 336 335 336 335 337 338 338 340 341 340 339 340 340 340 339 338 337 333 333 335 335 334 334 336 337 337 337 337 337 338 336 335 334 332 331 330 331 331 328 326 326 326 325 326 325 326 321 305 299 299 299 300
326 328 330 334 329 318 315 321 329 329 325 320 318 321 319 315 316 318 319 316 315 316 316 316 318 322 320 321 325 319 315 318 319 322 321 321 321 322 324 324 326 329 330 332 334 336 335 336 335 337 338 338 340 341 341 340 340 340 340 339 338 337 333 333 334 333 333 334 335 336 336 336 337 337 338 337 336 335 333 331 332 332 331 329 327 326 325 325 326 324 325 319 304 299 299 299 299
324 332 342 342 325 317 318 323 329 333 332 323 318 318 315 315 316 316 317 316 317 318 318 317 317 318 320 323 323 316 313 318 319 320 320 320 320 321 324 324 326 329 332 333 334 335 335 336 335 337 338 338 339 341 341 340 340 340 340 338 338 337 332 332 333 332 331 334 335 335 336 336 337 337 338 337 336 335 333 332 332 333 332 330 329 327 324 324 324 322 323 317 303 299 298 298 299
331 332 337 331 322 322 321 321 326 332 331 320 316 317 312 314 317 315 317 317 316 317 316 316 317 316 318 320 320 320 316 317 320 319 320 319 319 321 323 325 327 329 332 334 335 335 335 336 336 336 337 338 338 340 341 340 340 340 340 338 338 338 333 333 334 333 331 332 334 335 335 336 337 337 337 337 336 335 333 332 332 332 332 331 330 327 324 323 322 320 319 314 304 299 298 298 299
333 335 332 320 318 327 323 319 323 324 320 318 318 317 314 315 317 316 316 317 318 317 313 312 315 316 316 316 322 328 318 315 320 319 319 319 319 320 322 324 327 330 332 334 335 335 335 336 336 336 336 338 338 339 340 340 340 340 340 339 338 338 335 333 334 334 332 332 333 335 335 336 337 337 337 337 336 335 334 333 332 332 331 331 330 328 325 323 322 320 317 311 303 299 298 298 298
324 336 338 324 320 324 320 318 322 321 318 319 315 313 315 315 315 317 316 315 317 315 311 310 312 315 316 313 319 322 314 315 319 318 318 319 319 320 321 323 327 330 332 333 335 335 335 335 335 336 336 337 338 339 339 340 340 340 339 340 339 338 337 334 333 334 333 332 333 334 335 335 337 337 337 337 336 335 335 333 333 332 332 331 330 328 326 324 323 321 317 311 304 299 298 298 298
323 334 332 319 316 316 315 318 321 321 322 321 315 312 317 315 312 315 314 313 315 313 312 314 312 313 315 314 315 314 312 314 316 318 318 318 320 321 321 321 324 329 331 332 334 336 336 336 336 335 336 337 338 338 339 340 340 339 338 339 339 339 338 336 333 333 333 333 332 333 334 335 336 337 336 337 336 336 335 334 333 332 332 331 329 328 326 325 324 321 318 313 306 301 298 298 297
324 333 330 318 316 316 317 321 320 317 323 326 319 315 315 316 314 312 310 311 314 315 315 316 312 311 315 315 313 311 312 312 314 317 318 319 321 322 322 320 321 325 329 331 332 335 336 336 336 336 335 335 336 338 338 339 340 339 338 338 339 339 338 337 334 333 334 333 333 332 332 333 335 336 336 336 336 335 335 334 333 333 332 330 328 328 326 325 324 322 319 315 309 303 298 298 297
332 334 323 318 321 321 322 327 322 316 319 321 317 315 314 316 316 313 311 313 316 316 315 315 313 311 312 311 310 311 311 312 314 317 318 319 321 322 322 321 322 323 327 330 330 333 336 337 336 336 336 335 335 337 338 339 339 338 337 338 339 338 338 337 335 334 334 333 333 332 331 332 333 335 336 336 335 335 334 333 332 332 332 329 327 328 326 325 324 322 319 317 313 306 300 298 297
338 331 316 324 332 324 323 327 323 317 315 316 316 314 313 314 313 312 313 315 316 316 315 315 316 315 312 309 310 310 310 311 314 317 318 318 319 320 320 320 322 323 326 328 328 329 332 335 337 337 336 336 335 336 338 339 338 338 337 338 339 339 338 338 336 334 335 334 333 333 331 331 332 334 335 335 335 335 334 333 332 331 331 328 327 327 326 325 324 322 320 319 316 311 304 299 298
329 324 320 334 333 322 322 323 320 317 315 316 317 313 314 314 312 311 313 315 316 315 316 315 317 317 314 311 308 307 309 309 311 316 318 318 318 318 319 319 320 322 324 325 326 327 328 332 335 337 336 336 336 335 336 338 339 338 337 337 338 339 339 338 337 335 334 335 333 333 332 331 332 333 334 334 333 333 333 333 333 332 331 328 327 327 327 326 324 322 321 320 319 316 310 302 298
318 320 328 331 321 318 321 322 321 319 314 314 316 315 316 314 311 312 313 315 315 315 315 316 315 313 314 313 307 304 304 304 306 309 313 315 315 314 314 315 315 317 319 321 323 325 326 328 331 335 336 337 337 336 335 337 338 339 338 337 337 338 339 338 337 336 335 335 334 334 333 332 332 332 334 334 333 332 332 333 333 332 331 328 327 327 327 325 323 322 321 321 320 319 316 309 301
317 323 327 326 319 316 320 323 320 316 313 314 316 316 315 313 312 313 314 314 314 314 314 313 312 311 312 311 305 302 302 302 302 302 305 307 308 308 308 309 310 311 312 315 317 320 323 326 328 331 334 335 336 336 336 336 337 339 339 337 337 337 339 339 337 337 337 335 335 335 333 333 333 332 333 334 333 332 331 331 332 332 331 328 326 327 327 325 323 322 321 321 320 320 319 316 308
318 323 322 322 319 317 320 321 317 314 314 316 316 313 311 312 313 314 313 313 314 313 312 311 310 308 306 305 303 304 305 304 302 302 303 303 304 304 305 307 308 309 309 309 311 314 317 321 325 328 331 334 335 336 336 335 336 338 339 338 336 336 337 339 338 335 336 336 335 335 334 333 333 333 334 334 334 334 332 331 330 331 331 329 327 327 327 325 323 322 322 321 320 320 320 319 315
318 322 322 320 317 318 321 319 317 314 314 315 313 310 311 314 314 312 313 313 312 310 307 307 305 302 303 304 303 305 305 303 303 303 303 303 303 304 305 307 308 310 310 309 309 310 312 316 320 325 328 332 334 335 335 335 335 336 339 339 338 336 335 338 338 335 336 336 335 335 335 334 334 333 334 334 334 333 334 332 330 330 330 328 328 328 327 326 325 324 324 322 320 320 321 320 319
319 321 322 318 316 320 320 317 317 314 313 312 310 311 313 314 312 312 314 312 311 309 307 304 303 303 304 305 304 303 303 302 302 302 303 302 303 305 307 308 310 311 311 311 310 309 311 313 316 320 324 329 332 334 334 335 335 336 337 339 340 337 334 334 335 335 335 335 336 336 335 334 333 333 333 333 333 332 334 333 331 330 330 328 329 329 327 327 326 326 325 324 322 321 321 321 319
319 320 319 316 315 316 315 315 315 313 314 311 311 314 314 311 310 313 314 311 309 311 310 306 309 310 305 304 304 303 303 302 301 302 302 302 302 304 306 307 310 311 313 314 312 310 311 312 314 317 320 325 329 332 332 333 334 335 336 337 338 339 337 333 331 331 334 336 336 334 334 334 333 332 333 333 333 331 332 333 332 330 330 329 330 328 327 327 327 326 326 324 323 322 321 321 319
316 317 317 315 314 314 314 315 314 311 312 311 312 314 313 309 311 316 313 309 311 315 312 308 311 312 304 304 303 302 302 301 301 301 301 301 301 302 303 305 308 310 313 317 316 313 311 311 313 316 319 322 326 330 331 331 333 334 335 335 336 336 337 336 332 330 332 333 333 334 333 333 334 334 333 332 331 330 331 332 332 332 331 330 329 328 328 326 326 326 325 324 323 322 322 320 319
312 313 314 316 315 314 315 316 313 311 312 312 312 314 313 308 312 317 311 309 312 316 314 309 311 310 304 304 302 301 301 300 300 300 300 300 300 301 301 303 305 308 312 317 320 319 315 314 315 318 319 322 327 330 331 332 332 332 334 334 335 334 333 334 335 332 332 330 329 333 333 331 332 333 333 332 331 332 331 330 331 331 331 331 329 329 328 326 326 326 325 325 323 322 322 320 319
312 313 314 317 318 316 314 313 313 312 312 313 312 315 318 315 316 316 309 308 312 313 311 308 310 308 304 304 302 301 300 300 300 299 299 299 300 300 301 302 304 307 311 316 322 322 322 321 320 321 321 323 326 329 330 332 332 332 332 332 333 333 331 330 329 329 330 331 329 331 334 333 332 332 332 331 331 332 331 330 331 331 331 330 329 328 327 327 326 326 325 324 323 322 321 320 319
313 314 313 315 317 319 315 310 312 313 312 313 312 317 327 328 321 313 308 309 312 312 307 306 309 306 304 303 302 301 300 299 299 299 299 299 299 300 301 302 304 307 310 316 321 323 325 325 325 324 324 324 326 328 329 330 332 332 332 332 330 328 328 328 328 328 330 330 328 330 332 331 332 331 330 329 330 331 331 330 331 330 330 329 329 328 327 328 327 326 325 324 323 322 321 320 318
315 312 317 320 315 324 323 312 313 314 312 311 312 318 324 326 319 309 307 311 313 313 310 308 309 305 303 303 301 301 299 299 299 298 299 299 299 300 300 302 303 307 310 314 318 321 324 325 325 326 325 325 325 326 327 327 329 329 330 330 330 329 328 329 331 332 332 331 330 330 331 331 331 331 331 331 330 330 329 328 328 328 329 329 329 329 328 328 326 326 325 324 323 321 321 319 318
323 314 324 326 316 324 327 314 315 315 311 310 312 319 320 320 316 307 307 313 315 316 313 309 307 304 302 301 300 301 299 299 298 298 298 298 299 299 300 301 303 305 309 312 316 319 323 324 325 326 326 326 326 326 326 327 328 328 328 328 330 331 329 329 329 330 331 330 330 330 330 330 330 331 331 330 329 329 328 327 328 328 329 328 328 329 328 328 326 325 325 324 323 321 320 319 318
328 317 322 327 318 320 320 315 316 314 311 311 312 317 318 318 316 308 307 312 317 319 313 307 305 303 301 300 300 299 299 298 298 298 298 298 299 299 299 300 302 304 307 311 314 317 320 322 324 325 325 326 326 327 327 328 328 328 329 328 329 329 328 328 327 327 327 327 327 327 326 327 327 327 327 327 326 326 327 326 326 327 326 325 326 326 327 326 325 324 323 322 321 320 320 318 317
327 319 317 322 319 317 318 318 316 313 313 313 313 314 314 316 315 311 307 308 316 317 309 305 302 301 301 300 300 299 298 298 297 297 297 297 298 298 299 299 301 303 306 309 311 314 317 319 322 323 324 325 325 326 326 327 327 327 326 326 327 326 326 326 325 325 325 324 324 324 324 324 323 323 323 323 323 323 323 323 323 323 323 322 321 321 321 321 321 320 320 319 319 318 318 317 316
329 323 318 321 319 316 318 319 316 314 315 315 316 315 315 316 313 311 306 306 312 310 304 303 302 301 301 300 299 299 298 298 297 296 296 297 298 298 299 299 300 302 304 307 309 312 314 316 318 320 322 322 323 324 324 325 325 324 324 324 324 323 323 323 323 323 322 322 322 321 322 321 321 321 321 321 321 320 320 320 319 319 319 319 318 318 318 318 318 317 317 317 317 317 316 315 314
325 323 321 323 322 319 319 317 315 313 313 316 315 314 316 316 314 311 306 304 307 305 303 303 302 301 300 300 299 299 298 297 296 295 296 296 297 298 298 299 300 301 303 305 308 309 310 312 315 317 318 319 320 321 321 322 321 321 321 320 319 318 318 319 319 319 319 319 319 319 319 319 319 319 319 319 319 318 318 317 317 317 317 317 317 316 316 316 315 315 315 315 315 314 314 313 313
316 317 317 320 320 319 318 316 315 312 313 319 318 316 317 316 315 310 305 307 307 304 304 302 301 301 300 300 299 298 298 297 296 295 295 296 296 297 298 299 300 301 302 304 305 306 307 309 311 312 313 316 318 318 318 318 317 316 315 313 312 311 313 314 314 314 314 315 315 316 316 315 316 316 316 316 316 317 316 316 316 315 315 315 314 314 313 313 313 312 312 312 312 311 312 311 311
313 314 315 317 318 317 315 313 315 312 313 320 319 317 317 317 315 308 304 308 307 303 304 302 301 301 299 299 299 298 298 296 295 295 294 295 295 296 296 297 298 299 300 301 302 303 304 307 308 308 310 312 313 313 314 313 312 311 309 308 308 308 308 309 309 308 309 310 310 310 310 310 310 311 311 312 313 313 313 313 312 311 311 311 311 311 311 311 310 310 309 309 309 308 309 309 308
312 313 313 315 316 316 319 317 316 314 313 320 321 316 317 316 311 306 304 305 303 301 302 301 300 300 299 299 298 298 297 296 295 294 294 294 294 295 295 295 296 296 297 298 300 301 303 304 304 306 308 308 308 309 309 308 307 307 306 305 305 305 304 304 305 305 306 307 306 306 306 305 305 305 305 306 306 306 306 307 306 306 306 307 307 307 308 308 308 308 307 306 306 306 306 306 306
313 314 313 316 315 317 323 320 317 315 312 317 319 315 318 315 309 306 303 302 302 301 301 300 300 299 298 298 297 297 297 296 296 294 293 293 293 293 293 294 294 295 295 296 298 299 300 301 302 303 304 305 305 306 306 305 305 305 304 303 303 303 302 303 304 304 304 304 304 304 303 303 303 303 303 303 303 302 302 302 302 302 302 302 303 303 303 304 304 305 305 304 304 303 304 303 304
318 317 314 316 316 316 320 318 316 319 317 314 314 317 324 319 313 310 305 303 303 301 301 301 300 299 298 298 297 296 296 295 295 294 293 292 292 292 292 293 293 293 294 294 295 297 298 299 301 302 302 303 303 303 304 304 304 304 303 303 303 303 302 302 302 301 302 302 302 301 301 302 302 302 302 302 301 301 301 301 301 301 301 301 301 301 301 301 301 302 302 303 302 300 300 301 301
320 321 316 316 318 317 317 316 316 321 324 316 311 322 334 326 318 312 307 306 304 302 302 301 300 300 299 299 298 297 296 295 294 293 292 291 291 292 292 292 292 293 293 293 295 296 298 299 300 300 301 301 301 302 302 303 303 302 302 302 301 300 299 298 298 298 299 299 299 299 300 300 300 300 300 300 300 300 300 300 300 300 300 300 300 300 300 300 300 300 300 301 301 299 299 298 299
320 321 318 315 315 315 316 316 317 323 325 315 310 319 330 330 325 315 308 308 305 302 303 301 300 300 299 299 298 297 296 296 294 292 291 291 291 291 291 291 292 292 292 293 295 296 298 298 299 299 300 300 300 300 301 301 301 300 300 299 298 297 295 294 295 296 297 297 297 298 298 298 298 298 298 298 298 298 299 298 298 299 299 298 299 299 299 299 299 299 299 299 299 299 298 297 297
324 320 318 319 317 318 320 318 319 323 322 318 317 317 319 326 325 312 307 310 306 303 303 301 300 300 299 298 298 297 296 296 295 294 292 290 291 291 291 291 291 291 292 293 295 296 297 298 298 298 298 298 299 299 299 300 299 299 298 297 296 295 294 293 294 294 294 295 295 295 295 295 295 295 295 295 296 296 296 297 297 297 297 297 297 298 297 298 298 298 298 298 298 298 297 297 297
323 316 316 319 318 321 322 320 320 318 316 323 325 317 316 327 323 308 306 311 309 306 304 302 301 300 299 298 297 297 296 295 294 293 292 290 290 291 291 291 291 291 292 292 294 295 296 296 297 297 296 296 296 297 297 297 297 296 296 296 294 293 292 292 292 292 292 292 292 292 291 291 291 291 291 291 292 292 292 293 294 294 295 295 296 296 296 297 297 297 297 297 297 297 296 296 296
316 311 315 317 317 320 321 322 322 316 316 325 326 319 319 328 326 312 308 313 314 310 305 302 302 300 299 298 297 296 296 296 293 291 291 291 291 291 291 291 291 291 291 292 293 294 294 295 296 295 294 294 294 295 295 294 294 294 294 293 292 291 291 291 291 291 290 290 290 289 289 289 289 289 288 288 288 288 289 289 289 290 290 290 291 292 292 293 294 294 294 295 295 295 295 295 295
311 314 321 320 318 321 321 323 321 317 323 325 321 319 318 323 328 319 313 314 314 310 305 303 302 301 300 299 298 297 296 296 295 291 290 291 291 291 291 291 291 291 291 292 292 293 293 294 294 294 292 292 293 292 292 292 292 292 291 291 290 290 289 289 289 288 288 288 288 287 287 287 287 287 287 287 287 287 287 287 287 287 287 287 287 287 288 288 288 289 290 291 291 292 293 293 294
313 321 325 321 321 320 320 323 321 321 329 323 315 315 315 320 326 319 314 311 308 307 305 303 302 301 300 299 298 297 296 296 296 293 291 291 291 291 291 291 291 291 291 291 292 292 293 292 292 292 291 291 291 290 290 290 289 289 289 288 288 287 287 287 287 287 286 287 287 287 287 287 287 287 287 287 287 287 287 287 287 286 286 286 286 286 286 286 286 286 286 287 287 287 288 289 290
316 322 322 323 324 322 323 325 321 323 324 315 312 315 314 319 321 315 315 312 305 304 304 302 301 301 300 300 299 297 297 296 296 295 292 290 290 290 290 290 291 291 291 291 291 291 291 291 291 290 289 289 289 289 289 288 288 288 287 287 287 287 287 287 286 286 286 286 287 287 287 287 287 287 287 287 287 287 287 287 287 287 287 287 287 287 287 287 287 286 286 286 286 286 286 286 286
315 321 322 324 325 326 330 327 320 322 319 311 310 314 316 320 317 311 311 308 302 301 303 302 300 300 299 299 299 298 297 296 296 295 292 290 290 290 290 290 290 290 290 290 290 290 290 290 290 289 288 288 288 288 288 287 287 287 287 287 287 287 287 287 287 287 287 287 287 287 287 287 287 287 287 287 287 287 287 287 287 287 287 287 287 288 288 288 288 287 287 287 287 287 287 286 286
314 319 320 322 326 329 330 328 325 325 321 314 310 314 323 323 313 305 303 302 299 300 302 301 300 299 299 299 299 298 297 296 296 295 292 290 291 291 290 290 290 290 290 290 289 289 289 289 288 288 287 287 287 287 287 287 287 287 287 287 287 287 287 287 287 287 287 287 287 287 287 287 287 287 287 287 287 288 288 287 287 287 287 287 287 288 288 288 288 288 288 288 288 287 287 287 287
314 314 316 320 324 324 322 321 321 320 320 318 314 317 323 317 307 301 302 301 299 300 300 300 300 300 299 299 298 298 298 296 296 296 293 290 291 291 290 289 289 289 289 289 289 288 288 288 288 287 287 287 287 287 287 287 287 287 287 287 287 287 287 287 287 287 287 287 287 287 287 287 287 287 287 288 288 288 288 288 288 287 287 287 287 287 287 287 287 287 287 287 287 287 287 287 287
315 313 319 319 315 317 320 317 313 313 320 320 317 319 319 312 307 303 301 301 300 299 300 300 300 300 299 299 299 299 298 297 297 295 292 291 291 291 290 289 289 289 289 289 288 288 288 288 287 287 287 287 287 287 287 287 287 287 287 287 288 287 288 288 287 288 287 287 287 287 287 287 287 287 287 288 288 288 288 287 287 287 287 287 287 287 286 286 286 286 286 286 286 286 286 286 286
317 318 320 315 311 316 321 321 319 318 321 320 317 319 320 318 315 306 302 303 301 300 300 300 299 300 300 299 299 299 299 298 297 294 291 290 292 291 290 289 289 289 288 288 288 288 288 287 287 287 287 287 287 287 288 288 288 288 288 288 288 288 288 288 288 288 288 288 288 288 288 288 288 288 288 288 288 288 288 287 287 287 287 287 287 286 286 286 286 285 285 285 285 284 284 285 285
315 318 315 313 318 322 318 319 324 322 321 322 320 317 317 319 317 312 309 307 303 301 301 300 300 300 299 299 299 299 299 298 297 295 292 290 291 291 290 289 288 288 288 288 288 288 287 287 287 287 287 287 288 288 288 288 288 288 288 288 288 288 288 288 288 288 288 288 288 288 288 288 288 288 288 288 288 288 288 288 288 287 287 287 287 287 286 286 285 285 285 285 284 284 283 284 284
310 312 311 312 318 323 320 318 321 322 321 323 321 317 318 319 318 320 317 308 302 301 300 300 299 299 299 299 298 299 299 297 296 296 292 290 291 292 291 290 289 288 288 288 288 288 287 287 287 288 288 288 288 288 288 289 288 288 288 288 288 288 288 288 288 287 287 287 287 287 287 287 287 287 287 287 287 287 287 287 287 287 287 287 287 287 286 285 285 284 284 284 283 283 283 283 283
314 314 315 314 314 316 318 316 318 322 322 323 320 318 322 321 314 317 316 307 301 301 300 300 299 298 298 298 298 298 298 296 295 294 292 290 291 292 291 291 290 289 288 288 288 288 287 287 288 288 288 288 289 289 288 288 288 288 288 288 288 288 288 288 287 287 287 287 287 286 286 286 286 286 286 286 285 285 285 285 285 285 285 285 285 285 285 284 284 283 283 283 282 282 282 282 282
317 319 319 318 317 317 319 317 317 319 320 322 321 319 321 317 308 308 310 305 301 300 300 300 299 299 299 298 298 298 297 296 295 293 291 290 291 291 291 291 290 289 289 288 288 288 287 288 288 288 288 288 288 288 288 288 288 288 288 288 288 288 288 288 288 287 287 287 287 287 287 287 286 286 286 286 285 285 285 285 284 284 284 284 284 283 283 282 282 282 282 281 281 281 281 281 281
Wind_Speed
10 9 10 9 8 5 2 4 2 2 4 3 1 0 2 3 1 1 3 3 2 2 3 2 1 3 0 2 4 4 4 5 4 3 1 5 3 3 15 10 4 10 21 24 27 30 28 27 25 23 21 19 18 17 16 15 14 14 13 12 12 11 11 10 10 10 10 9 9 10 10 9 9 9 9 8 9 8 7 6 6 7 6 6 5 4 3 4 4 3 4 5 5 5 5 5 5
9 10 10 8 6 3 1 3 3 3 5 3 1 2 3 3 2 3 4 4 4 3 3 3 2 2 2 2 2 1 2 5 5 3 3 5 4 5 14 12 6 9 20 23 26 30 29 28 26 25 23 21 19 18 17 15 15 14 14 13 12 11 12 11 10 10 9 9 8 9 9 8 8 9 9 9 8 7 7 7 6 6 6 5 3 3 3 3 2 2 3 4 5 6 6 6 5
10 10 11 7 3 3 1 3 2 1 5 2 3 4 2 1 4 6 7 7 7 4 4 3 2 1 3 4 1 2 2 4 3 2 4 5 3 4 12 13 8 9 19 22 24 29 30 29 27 26 24 23 20 19 18 16 16 15 14 13 12 12 12 11 11 11 10 9 9 9 7 7 7 8 9 9 8 8 8 7 7 6 5 3 3 4 4 3 2 3 4 5 5 6 6 7 7
10 8 11 5 1 4 4 4 2 4 3 2 2 4 2 2 6 7 7 7 6 4 3 0 0 2 3 2 1 1 3 4 3 4 2 3 2 2 10 14 9 11 18 20 23 28 29 29 27 26 25 24 22 20 19 18 17 16 15 13 12 12 12 11 11 11 11 10 9 8 7 7 6 7 8 9 8 7 8 7 7 6 5 3 3 3 3 3 4 5 7 8 8 7 7 7 7
8 5 9 3 2 2 3 3 2 4 2 4 1 4 4 6 6 6 7 7 5 2 1 2 1 2 2 1 2 2 3 2 3 5 2 3 2 3 10 15 11 12 18 19 21 25 28 28 27 27 26 25 23 21 21 20 19 17 15 14 13 12 12 12 11 11 11 10 8 8 8 7 7 8 8 8 7 7 7 7 7 7 7 3 2 2 3 4 4 7 10 11 8 6 7 7 7
8 3 6 7 3 1 3 3 2 1 3 5 1 5 5 5 6 5 7 8 3 2 2 1 0 1 1 3 2 3 3 0 2 4 3 3 2 3 10 15 12 12 16 19 19 23 26 27 27 27 26 25 24 22 21 21 19 18 17 15 14 14 13 13 12 11 11 10 8 8 8 8 8 8 7 8 8 7 7 6 7 8 7 3 2 3 4 5 6 9 12 12 8 6 6 7 7
9 4 4 6 2 2 3 3 3 1 2 4 2 5 6 5 5 3 6 5 1 1 1 0 1 1 1 3 2 4 4 3 2 2 3 3 4 4 10 14 12 11 15 19 19 22 24 27 27 26 26 25 24 22 22 22 20 20 19 17 16 15 14 14 12 12 12 10 9 8 8 9 8 8 8 10 9 7 6 5 4 6 4 4 4 4 5 7 9 10 13 12 7 5 6 6 6
8 4 0 4 2 4 4 3 3 2 0 3 3 5 7 5 4 1 4 2 1 2 2 3 1 1 2 3 2 5 3 5 5 5 6 5 5 5 10 12 12 11 14 18 19 20 23 26 27 27 26 25 25 24 23 22 21 20 19 18 17 16 15 15 13 13 13 11 10 9 8 9 9 10 10 11 9 6 5 3 1 3 4 5 5 6 6 8 9 9 10 11 7 5 5 4 4
6 4 1 3 2 3 3 1 2 3 3 5 4 6 6 4 3 1 2 2 1 2 4 4 1 0 3 3 3 5 2 4 6 7 7 5 6 6 10 11 10 10 13 17 18 19 22 25 27 27 26 26 25 24 23 22 22 21 20 19 17 16 16 16 15 14 14 12 11 10 9 9 10 11 12 11 9 7 2 1 1 2 4 5 6 8 9 10 9 6 7 9 7 4 4 3 3
5 4 1 3 3 3 3 1 2 2 4 5 5 8 6 3 2 1 1 3 1 2 5 2 1 1 2 2 4 3 3 4 4 4 5 5 6 7 10 10 9 9 11 15 17 18 20 23 26 27 26 26 26 25 23 23 22 22 21 19 17 17 16 16 16 15 15 13 12 11 10 10 11 11 12 11 9 8 3 2 2 4 6 7 8 10 12 10 6 5 5 7 6 5 3 2 2
3 4 2 4 4 2 1 2 4 4 6 5 4 6 6 3 0 0 1 3 2 2 4 1 1 2 0 3 4 2 5 7 3 2 4 5 6 7 10 10 9 9 10 12 14 16 18 21 25 27 26 26 26 25 24 23 23 22 21 19 17 17 17 17 16 17 16 14 13 12 11 11 12 11 11 11 10 8 6 4 4 5 6 8 10 12 11 7 5 5 5 6 6 4 3 3 2
2 3 4 5 3 1 2 2 4 6 7 4 3 3 2 3 1 2 2 4 3 4 5 2 0 1 1 3 4 5 7 7 1 3 3 5 6 7 9 9 9 9 10 11 13 15 16 20 23 26 26 26 26 26 24 23 23 22 21 20 18 17 18 18 17 17 17 16 15 13 12 12 12 12 12 11 10 9 7 6 5 5 6 9 11 12 11 7 6 7 6 6 6 4 3 3 3
3 1 4 3 3 3 2 2 4 5 5 2 1 2 1 1 2 3 3 2 2 4 4 4 2 2 1 3 4 6 8 7 3 4 5 6 6 8 9 10 10 10 11 12 14 14 15 18 21 25 26 26 27 26 25 24 24 23 22 21 19 18 18 19 18 17 17 17 16 14 13 12 12 14 13 11 10 9 8 8 7 6 7 9 11 12 11 8 9 10 9 9 6 5 4 3 3
2 3 4 2 1 2 3 1 2 1 2 3 2 3 2 2 4 4 3 3 5 2 2 2 4 2 2 3 5 4 6 7 2 5 5 7 8 9 10 11 11 11 12 13 14 14 15 16 19 23 26 27 27 27 26 25 25 24 23 22 20 19 18 19 19 18 17 17 17 15 14 12 12 14 15 13 12 9 9 9 7 6 7 9 12 12 11 11 11 11 12 11 7 5 4 3 3
3 2 5 3 2 1 3 1 2 3 3 3 2 3 3 2 3 2 3 1 5 4 2 2 3 0 2 2 5 5 6 9 2 4 6 8 9 10 11 12 13 13 13 14 15 15 16 16 18 21 25 27 28 28 28 27 26 25 24 23 22 20 19 19 20 19 18 17 18 17 15 13 12 14 16 15 14 11 10 9 8 7 7 9 12 13 12 12 13 12 13 13 8 7 5 4 4
3 4 5 3 1 2 2 1 3 3 3 5 3 2 4 5 1 1 4 2 3 3 3 2 2 1 2 3 6 6 8 11 7 6 7 8 9 10 12 12 14 15 15 15 15 17 17 17 17 19 23 27 29 29 28 28 27 26 24 24 23 21 20 19 20 20 19 17 17 18 17 15 12 13 16 16 15 13 11 10 9 8 8 10 11 13 12 12 13 13 14 14 11 9 6 5 5
3 4 5 2 1 1 3 3 3 2 5 6 5 5 4 7 3 1 2 2 3 5 4 4 3 1 4 5 7 9 13 13 10 8 8 8 9 10 12 13 14 16 17 17 16 17 18 18 18 19 21 25 28 29 29 29 28 27 25 25 24 22 21 20 20 20 20 18 17 18 18 17 14 13 15 16 15 14 12 10 10 9 9 9 10 12 12 12 13 13 14 15 13 11 7 5 5
5 4 3 1 3 3 5 6 5 3 3 6 4 4 1 6 6 4 3 2 3 5 5 6 5 5 7 7 10 13 14 13 10 9 9 9 9 10 13 14 14 17 18 18 17 18 19 20 20 20 20 22 26 28 29 29 29 27 26 26 25 24 22 21 21 21 21 19 18 18 18 18 16 13 14 15 16 15 13 11 11 10 9 9 10 12 12 12 13 13 14 15 15 13 9 6 6
4 3 2 2 5 5 5 6 5 3 3 6 5 3 1 5 4 3 4 6 6 7 7 4 5 8 8 7 8 12 13 12 9 8 10 11 11 11 12 12 13 15 15 16 18 18 20 21 21 21 21 21 23 27 28 28 28 28 26 26 25 24 23 22 22 22 22 20 19 18 18 19 17 15 14 15 15 15 14 13 12 11 11 10 10 11 13 13 14 14 14 15 17 16 11 8 7
2 4 1 5 6 4 4 5 6 5 2 5 6 2 2 5 3 2 4 8 7 6 6 3 5 8 9 9 9 12 13 13 10 8 9 12 12 12 13 12 12 13 14 16 18 19 20 21 23 23 22 22 22 25 27 27 28 28 27 26 26 25 24 23 22 22 22 21 20 19 18 18 17 15 14 15 15 15 15 14 13 12 12 11 10 12 12 12 14 15 16 17 18 18 15 11 9
2 3 3 5 3 2 5 6 6 5 2 2 4 5 7 5 2 0 3 7 10 7 6 5 4 6 9 11 11 14 14 15 15 12 10 12 14 14 14 15 16 17 16 18 18 19 20 21 23 24 23 23 23 24 26 27 26 26 27 27 26 25 25 25 23 22 22 22 21 20 19 18 18 16 15 15 16 15 15 16 16 13 13 12 11 13 12 12 15 16 17 19 19 19 18 15 12
1 3 5 5 3 2 6 4 4 3 2 1 4 6 7 4 1 2 2 4 9 7 1 4 3 5 7 8 10 12 14 15 17 18 16 14 15 15 16 16 16 17 18 20 20 19 19 21 23 24 24 24 24 25 25 26 26 26 26 26 25 24 25 25 24 23 22 22 22 21 20 18 18 17 17 18 18 17 16 16 16 15 15 13 13 14 12 12 15 15 17 19 19 20 20 18 15
1 3 2 3 4 3 5 2 2 3 2 3 3 4 3 5 7 4 4 9 12 6 5 4 2 3 3 6 8 10 11 11 14 16 16 17 17 17 18 18 17 17 16 18 19 17 18 20 22 23 24 24 24 24 25 25 26 25 25 25 25 24 24 25 25 26 26 23 22 23 22 19 19 18 18 19 18 18 18 16 15 16 16 15 16 15 11 13 17 17 18 18 19 20 20 20 18
2 3 4 3 4 5 6 3 3 1 2 7 2 3 4 5 7 3 7 11 8 6 4 3 2 10 11 10 8 9 10 11 13 14 15 16 17 17 19 20 18 17 16 15 14 15 15 16 20 23 23 23 23 23 24 24 25 25 23 23 23 23 24 24 23 23 26 25 24 25 24 20 20 19 19 19 18 18 20 17 16 17 16 16 18 16 12 17 20 19 17 16 18 19 20 20 19
3 4 4 2 3 6 6 5 6 4 6 5 0 4 8 8 3 3 12 8 5 4 4 4 6 12 12 10 10 9 10 13 16 17 17 17 19 20 22 22 20 19 19 16 12 11 10 11 15 20 22 22 22 22 22 23 24 24 24 22 22 23 23 23 20 20 21 23 24 24 24 23 21 21 20 20 19 19 22 21 17 16 16 16 16 16 15 20 20 18 16 15 17 18 19 20 20
4 5 3 3 5 6 6 6 6 4 4 2 2 8 8 5 1 4 10 5 5 3 7 7 8 10 10 9 9 10 10 13 16 17 17 20 24 26 26 26 24 23 21 17 13 8 6 7 10 14 18 20 21 21 21 22 22 23 23 22 21 21 22 21 19 20 20 20 22 22 23 27 27 24 21 20 18 20 23 21 18 17 17 17 15 14 17 20 19 17 16 15 17 18 19 19 20
4 4 4 5 7 7 4 7 6 3 3 4 5 9 6 3 2 3 3 6 4 6 9 7 9 10 8 8 8 10 11 13 16 17 20 25 27 28 28 28 27 24 22 19 15 10 5 4 6 9 13 16 19 19 19 20 20 20 21 21 20 19 18 19 18 18 19 19 20 21 21 22 25 25 21 18 16 19 18 17 20 21 18 17 15 15 17 20 17 16 17 16 17 18 19 20 20
2 0 5 6 7 7 5 6 6 2 3 4 6 5 5 3 1 4 2 6 5 9 7 8 10 7 7 8 7 9 11 13 18 19 20 22 23 24 25 26 26 24 24 22 17 12 7 3 1 3 7 12 15 17 17 16 17 18 18 18 18 17 15 16 16 14 15 18 16 17 21 19 17 19 20 18 16 19 18 17 22 23 20 18 15 16 18 18 16 17 18 16 17 17 18 19 20
2 3 5 8 8 7 6 3 3 1 1 3 6 3 6 2 6 5 5 5 5 9 7 8 8 6 7 7 7 8 10 15 19 20 19 19 20 22 23 24 24 24 24 22 19 15 13 10 7 4 2 6 11 13 14 14 14 14 14 15 15 15 15 15 13 7 8 15 16 16 20 19 15 15 16 15 16 19 21 20 21 20 19 16 12 13 16 17 17 18 18 17 17 17 18 19 19
1 3 3 6 7 7 6 1 3 4 0 3 3 3 6 7 9 4 7 4 5 8 7 7 6 6 7 6 7 7 11 15 17 19 21 21 22 22 23 23 23 23 24 24 23 20 17 15 13 11 8 4 5 7 9 10 11 11 10 11 10 9 8 10 11 8 7 11 14 14 14 13 14 14 13 13 15 17 18 18 17 17 17 15 13 14 15 17 18 18 18 17 17 16 17 17 18
2 2 2 3 2 5 7 1 1 4 2 2 3 2 6 10 7 4 6 5 8 8 6 7 6 7 6 6 7 6 9 14 16 20 23 23 23 23 24 24 24 24 25 27 27 24 21 18 17 15 13 10 6 4 3 4 5 5 5 4 6 6 6 9 12 13 13 13 13 13 11 10 13 13 12 12 13 14 14 14 13 14 14 14 14 15 16 17 17 18 18 17 16 16 16 16 17
2 1 3 3 2 5 10 4 2 1 2 4 4 3 6 10 6 4 6 7 8 8 6 7 7 7 7 6 7 6 7 12 18 22 24 24 24 24 24 24 25 26 26 26 27 27 25 22 20 19 17 15 12 10 8 7 6 6 5 3 3 5 4 4 4 5 8 8 9 10 10 10 12 13 14 14 13 13 13 13 13 14 14 15 15 15 16 17 17 18 18 17 17 17 16 16 17
3 0 3 3 2 3 7 4 0 1 1 4 2 2 4 8 6 4 9 9 7 8 6 7 7 7 7 6 6 6 6 10 16 21 24 24 23 23 23 24 25 25 26 26 27 28 27 26 24 22 20 18 16 14 12 11 10 10 8 6 3 0 3 7 9 8 7 8 7 6 7 6 5 5 7 9 10 12 13 15 16 15 16 15 15 16 16 16 18 19 18 17 17 17 17 17 17
3 1 2 4 3 2 4 4 4 4 3 2 2 2 5 10 9 6 11 8 8 8 6 6 6 6 6 5 6 6 7 8 11 17 22 23 23 23 23 24 25 26 27 27 27 28 28 27 26 25 23 21 20 18 17 16 15 14 14 12 11 11 11 12 13 14 15 15 15 16 14 14 14 14 12 10 8 7 9 11 12 12 13 13 13 14 14 14 15 16 16 15 15 16 17 18 18
3 3 2 3 3 3 4 4 3 5 6 4 4 4 8 12 10 7 10 8 8 8 5 6 6 6 5 5 6 6 7 7 9 15 20 21 23 23 23 25 26 27 28 27 28 27 27 27 26 26 26 25 25 23 22 21 21 21 21 20 19 20 19 17 17 17 17 17 17 17 15 15 16 16 16 16 14 12 10 10 11 11 12 12 12 12 12 12 13 13 13 13 14 15 16 18 19
6 5 4 4 4 4 5 6 4 2 4 5 6 7 8 10 9 6 8 6 8 7 5 6 5 5 5 5 5 5 6 6 9 15 19 21 22 23 23 24 26 28 29 28 28 28 28 27 26 26 25 24 25 25 25 24 24 24 23 23 24 24 23 21 21 21 20 18 17 16 16 16 16 15 15 15 14 14 14 14 14 15 14 14 14 14 14 14 13 13 13 13 14 14 16 16 17
4 3 3 4 5 5 6 5 4 1 1 6 6 5 7 8 6 6 6 5 8 7 6 6 5 5 5 5 6 6 6 6 10 16 19 21 23 23 23 24 26 28 29 29 30 30 29 28 28 28 25 23 23 23 23 23 24 25 26 26 27 27 25 24 24 23 22 21 18 17 16 16 14 14 14 13 13 13 13 14 14 13 13 13 13 13 13 13 13 13 13 13 13 14 15 14 14
2 3 3 4 4 6 7 4 4 1 2 5 4 4 9 6 3 6 5 7 7 5 5 5 5 5 4 6 6 5 4 5 10 15 19 22 23 23 24 25 27 28 28 29 30 29 29 29 29 28 27 25 25 24 23 24 24 25 26 27 26 26 26 25 26 26 24 22 21 20 20 18 17 16 15 14 12 12 12 12 12 13 12 12 11 11 11 11 11 12 12 13 13 13 13 13 13
3 2 2 4 4 3 7 4 5 2 3 4 4 3 9 4 5 5 6 7 4 4 4 4 4 5 5 5 5 5 5 6 8 11 16 21 22 22 24 25 26 26 27 28 29 29 29 29 28 27 26 26 26 25 25 26 25 24 25 26 26 28 29 28 27 26 24 24 24 23 22 21 20 20 19 17 16 16 15 14 13 13 12 12 11 11 11 11 11 11 11 13 13 14 14 13 13
3 3 3 5 2 0 4 4 5 3 1 2 1 3 7 2 4 5 6 5 4 5 5 5 5 4 4 4 4 4 5 6 6 8 12 17 20 22 23 23 24 26 28 28 29 29 30 30 29 27 25 24 24 24 24 25 24 24 25 26 26 27 28 26 25 25 24 24 25 24 23 22 21 20 20 19 19 18 17 17 16 15 15 14 13 13 13 12 12 12 12 12 13 14 14 13 13
3 5 6 5 4 6 6 3 4 3 3 1 1 4 5 2 1 2 3 3 4 4 5 6 5 4 4 4 4 5 5 5 6 7 9 14 17 19 20 21 23 26 27 27 28 29 30 30 30 29 27 25 24 22 21 21 21 22 22 22 23 24 25 25 25 26 25 25 25 25 24 22 20 20 20 19 19 18 18 18 17 16 16 16 15 15 14 14 13 13 13 13 13 14 14 14 14
4 5 10 10 8 8 6 2 4 3 4 3 2 2 5 4 2 2 1 3 4 4 5 5 5 5 5 4 4 5 5 5 6 7 8 11 13 16 19 21 23 25 25 26 28 30 31 31 31 30 30 29 27 25 23 22 23 24 24 25 25 26 28 28 27 27 27 27 26 25 24 22 21 21 20 20 19 19 18 18 18 17 17 17 17 16 15 15 15 15 14 14 14 13 14 15 15
3 5 9 10 8 6 5 2 2 1 2 2 2 1 4 5 3 3 2 3 4 3 4 4 4 4 4 3 4 4 5 5 5 6 8 10 12 14 17 20 22 23 23 25 29 31 33 33 33 33 33 32 30 29 28 28 30 31 32 32 32 31 30 28 27 27 27 27 26 25 25 25 24 23 23 23 21 20 19 19 18 18 18 18 18 17 18 18 16 16 15 14 14 14 14 15 17
3 4 4 6 7 7 6 5 4 3 2 3 3 2 3 4 4 3 4 4 3 2 2 2 2 2 2 3 3 4 4 4 4 5 6 9 12 13 15 17 20 21 22 26 30 32 33 34 34 34 34 34 33 32 32 32 33 34 34 35 34 33 31 29 28 28 28 27 27 28 28 28 27 27 27 26 26 25 23 22 21 20 19 19 19 19 19 18 17 16 16 15 15 15 15 16 16
5 2 5 6 6 6 5 6 3 1 1 3 4 1 2 5 4 1 2 2 0 2 4 2 2 1 1 0 2 3 3 3 3 3 5 8 10 12 13 16 18 20 23 26 29 31 32 33 33 33 33 33 32 32 32 32 32 32 33 33 33 31 30 29 28 28 28 27 28 29 29 29 29 29 28 28 28 27 27 26 25 24 23 22 21 20 19 18 18 18 17 17 16 15 15 16 16
3 5 6 5 5 4 4 4 3 2 1 4 5 3 2 5 4 1 1 3 4 5 5 4 4 4 3 2 1 2 3 3 3 4 5 7 9 10 12 16 18 20 23 25 27 29 30 30 31 31 32 31 30 30 30 31 30 30 30 30 30 29 28 28 27 27 27 27 28 29 28 29 28 28 28 28 28 28 27 27 27 27 26 25 24 23 23 22 21 20 19 17 16 16 16 15 16
4 5 6 6 5 4 3 2 3 2 2 5 5 5 4 3 5 3 3 3 5 6 4 4 5 5 5 4 2 1 1 2 2 3 5 6 8 10 13 15 17 19 22 24 26 27 28 29 29 30 30 29 29 28 29 30 29 29 30 29 29 28 27 27 27 28 26 26 27 27 27 27 27 27 27 27 27 27 26 26 26 26 25 25 25 25 25 25 24 23 22 21 19 18 17 16 15
4 3 4 3 3 4 4 4 3 1 5 5 3 2 4 4 5 3 4 3 4 6 7 9 8 7 6 5 4 3 1 0 1 2 3 5 7 9 12 14 15 18 21 23 24 25 26 27 27 29 28 27 27 27 28 29 29 29 29 29 29 28 27 28 28 27 26 26 26 25 25 26 26 26 26 26 26 25 25 25 25 25 25 25 25 25 24 24 23 23 23 22 22 22 21 20 19
4 3 4 3 2 3 2 3 0 3 5 3 2 1 3 5 5 3 3 3 3 3 4 9 11 9 7 6 5 3 2 2 1 0 1 3 5 7 10 12 14 17 19 21 22 23 24 25 25 27 27 26 26 27 28 28 29 29 28 28 27 27 27 27 27 26 24 24 24 24 25 26 26 26 26 26 25 24 24 24 24 24 24 24 24 24 24 24 24 23 23 23 23 22 22 22 22
3 4 4 3 1 0 3 3 2 4 3 2 2 0 1 5 3 2 4 4 4 5 5 7 9 9 8 6 5 3 2 2 1 1 1 1 4 6 9 11 13 15 17 19 21 21 22 23 24 26 26 25 25 26 26 27 27 26 26 26 25 25 25 25 24 24 23 22 22 23 24 24 25 25 24 24 23 22 22 22 22 22 22 22 22 22 22 23 23 23 24 24 24 23 22 22 22
3 4 5 4 4 3 4 3 3 4 3 2 3 1 3 3 2 2 5 5 4 3 4 6 6 5 5 5 4 4 3 3 3 3 3 3 4 6 8 10 12 14 16 18 19 20 21 22 23 24 24 23 23 24 24 25 25 24 23 24 23 23 23 23 22 22 21 21 21 21 22 23 23 23 22 22 22 22 23 23 23 23 23 23 23 23 23 22 22 22 22 23 23 23 23 23 23
2 3 4 2 4 4 2 3 5 3 2 3 2 2 3 3 1 2 2 1 3 2 5 7 6 4 5 4 4 4 4 4 4 4 4 3 4 6 8 10 11 13 15 16 18 19 20 21 22 22 22 21 21 22 22 22 22 22 22 21 21 20 20 20 19 19 18 18 18 19 20 20 21 21 21 21 22 23 23 24 24 25 25 25 25 26 25 25 24 23 22 22 21 22 22 21 22
1 2 3 4 4 5 2 2 1 3 1 4 2 2 4 0 1 3 3 3 3 3 5 7 6 5 5 5 5 5 5 5 5 4 5 4 4 6 7 9 11 13 14 15 16 17 18 19 20 20 20 20 20 20 20 20 20 19 19 19 19 18 18 17 17 17 16 16 17 18 19 19 20 21 21 21 22 23 24 24 24 25 25 26 27 27 27 28 27 27 26 25 24 23 23 21 21
4 2 5 3 2 3 3 1 3 3 3 4 1 3 4 2 1 3 2 1 2 4 6 6 5 5 6 7 6 6 6 5 5 5 5 4 5 6 8 9 10 12 13 14 15 15 16 17 17 18 18 18 18 18 18 17 17 18 17 16 16 16 16 16 15 15 15 16 17 18 19 19 20 21 22 23 24 25 26 26 27 27 27 28 28 29 29 30 30 30 29 29 28 27 27 26 24
4 3 2 2 2 1 2 1 2 1 3 4 2 3 3 4 4 2 3 7 8 8 7 7 9 8 8 8 7 6 6 5 5 5 4 5 7 8 9 9 10 12 12 13 13 13 14 14 15 16 16 16 16 16 16 16 15 16 15 15 14 13 14 14 14 14 15 16 17 18 18 19 19 20 22 23 24 26 27 28 29 30 30 31 32 32 32 32 32 32 31 31 30 30 30 30 29
3 1 1 2 2 3 2 2 2 2 2 4 4 3 3 5 6 8 10 11 12 11 10 11 12 10 9 9 8 7 6 6 6 5 5 7 9 10 10 10 10 11 11 11 11 12 13 13 13 14 14 14 14 14 14 14 14 13 13 13 12 11 11 12 13 13 14 15 15 16 16 17 17 18 19 20 21 23 24 25 26 27 29 30 32 33 34 34 33 32 31 30 30 30 31 32 31
2 2 1 0 1 1 1 1 2 3 2 2 4 6 5 4 3 7 9 10 13 16 15 13 11 11 11 9 8 8 7 7 6 5 5 8 11 12 11 11 10 10 10 10 10 11 12 12 12 12 12 11 11 11 11 11 11 10 10 10 10 10 10 11 12 13 13 14 14 14 15 16 17 17 18 18 19 20 20 22 22 24 25 26 28 30 32 32 31 31 30 30 29 29 30 31 32
5 4 4 4 3 3 1 3 1 2 2 3 3 7 7 3 1 2 3 6 11 14 13 12 12 13 12 8 8 8 7 7 6 6 7 10 13 13 13 12 12 11 10 10 10 10 10 11 10 10 9 9 8 8 8 8 7 7 8 8 8 8 8 9 10 11 12 12 13 14 16 17 18 19 19 20 21 22 23 23 24 25 26 27 28 29 29 29 28 29 30 30 30 30 30 31 31
Wind_Direction
331 335 332 323 323 322 337 55 75 335 72 77 324 28 254 233 269 283 283 289 314 249 226 279 170 132 133 163 192 204 180 174 171 123 200 238 301 209 186 181 167 174 181 180 177 181 185 182 183 187 190 189 190 195 198 199 197 197 197 194 190 181 173 176 172 169 159 154 158 152 150 150 148 150 148 144 140 140 145 144 135 125 112 104 93 91 86 72 62 38 19 12 8 8 13 18 22
333 334 338 328 330 359 278 76 92 341 52 73 275 179 266 297 332 234 225 222 212 259 284 260 209 95 60 106 150 141 238 221 192 173 271 271 299 228 190 183 179 173 182 183 179 182 187 186 185 188 192 192 191 196 199 201 200 201 204 202 197 185 176 179 176 171 161 159 161 151 150 149 149 152 152 144 142 150 155 149 133 120 105 109 101 75 73 67 48 15 343 338 342 342 343 343 345
334 331 344 333 334 42 57 44 87 47 71 96 280 243 294 350 239 238 225 222 226 276 304 244 196 132 78 26 53 121 294 268 226 216 281 269 270 231 195 186 174 172 183 186 183 184 189 189 187 188 191 194 192 196 200 202 204 207 208 208 202 189 179 182 180 172 166 167 159 150 151 150 153 156 157 151 155 158 150 141 123 113 108 122 117 82 72 68 40 352 320 314 312 316 320 319 320
338 335 345 336 56 38 62 41 121 111 106 175 308 271 266 203 237 258 246 247 255 292 327 37 314 212 124 3 293 139 293 277 235 196 269 275 233 246 196 187 175 172 182 189 188 187 191 192 190 189 191 194 194 197 201 201 204 210 211 208 207 196 183 185 184 174 170 170 157 158 163 160 163 166 169 162 159 147 135 134 125 123 127 125 110 92 52 46 25 346 328 321 309 304 307 305 304
343 340 351 18 119 36 94 70 103 93 166 183 33 288 253 218 243 274 265 280 279 237 146 89 333 286 119 213 169 151 257 258 264 211 250 313 249 241 192 191 185 175 183 191 193 191 193 194 193 191 191 194 196 198 201 204 204 209 213 208 208 202 190 188 187 180 175 170 165 177 172 165 175 177 175 163 153 147 148 151 152 159 161 150 82 48 15 28 9 342 332 327 316 306 305 302 299
354 351 17 54 102 94 112 83 94 36 222 176 119 275 271 230 231 271 291 303 283 177 167 101 187 329 340 260 198 202 224 114 314 221 239 301 261 224 192 197 193 182 187 192 197 196 196 196 196 194 193 195 197 200 202 206 205 208 214 213 210 205 196 190 190 188 179 173 173 184 180 178 185 179 167 158 157 160 164 158 169 183 188 201 9 1 354 355 345 333 324 324 319 311 307 302 300
5 354 22 59 63 39 96 117 171 224 217 178 181 259 278 261 230 286 320 326 7 54 32 295 183 82 290 297 305 242 227 223 251 236 256 259 243 213 193 200 199 192 190 195 200 200 199 199 198 197 197 197 198 202 205 206 206 208 214 217 215 210 200 191 194 194 183 179 181 184 191 192 185 174 168 171 174 164 151 145 177 207 237 281 317 329 334 333 328 323 317 318 315 309 308 301 300
15 9 35 78 39 29 88 124 213 210 31 240 241 244 268 274 223 264 322 323 336 329 356 298 288 101 281 4 334 259 247 243 255 269 266 242 228 205 193 202 204 197 193 198 202 204 203 202 201 200 199 200 201 204 208 208 209 211 215 220 218 215 205 193 196 198 189 184 187 190 198 202 184 175 187 196 202 192 155 141 204 258 295 306 317 325 330 329 326 325 319 315 311 311 310 303 303
26 26 123 71 83 33 50 54 262 233 268 270 271 256 267 271 206 173 308 304 297 289 305 282 310 337 295 358 285 277 331 265 271 268 258 230 216 200 194 203 212 206 197 198 203 207 206 205 204 203 202 202 204 207 211 211 212 214 218 221 218 217 208 198 199 200 194 187 192 199 205 207 186 181 201 212 220 226 201 140 205 328 328 323 334 337 333 331 327 328 329 319 313 321 320 313 317
33 25 117 65 88 45 12 302 300 247 257 260 268 264 263 264 204 184 258 303 299 272 298 248 151 306 303 312 277 311 350 306 308 270 243 219 211 198 198 206 217 214 203 199 202 208 208 209 208 207 206 204 207 209 213 214 216 217 220 221 221 219 208 202 205 202 197 191 196 204 209 209 193 189 208 219 228 239 245 224 258 321 328 328 337 338 334 334 330 325 333 329 320 326 334 329 331
34 0 90 74 69 65 156 235 293 282 285 288 283 268 244 220 103 307 252 305 309 292 296 71 105 229 23 304 269 293 320 322 317 251 229 213 213 200 201 210 217 213 209 206 204 209 211 212 211 210 209 208 209 212 215 216 218 219 221 223 224 224 209 205 211 207 200 195 201 205 211 214 202 199 213 224 233 242 248 245 269 310 326 332 336 336 337 336 328 328 330 332 327 327 336 333 335
64 347 59 82 112 156 177 214 281 288 307 331 339 315 205 165 85 303 286 298 333 339 287 209 161 172 54 309 273 297 340 352 241 204 216 212 223 208 206 212 216 211 208 212 210 211 213 214 214 212 211 211 212 214 217 217 220 220 222 225 225 227 214 208 215 213 205 201 204 206 213 219 210 208 216 224 230 238 244 249 267 299 322 331 335 337 341 333 315 319 318 325 326 324 332 332 331
104 113 77 81 148 150 144 198 272 305 331 350 294 311 103 166 240 233 220 271 303 347 298 219 166 71 336 270 296 318 359 13 167 186 204 209 225 215 216 218 215 213 208 213 215 215 216 216 216 215 214 214 214 216 218 219 222 222 224 227 225 228 221 215 216 217 214 209 210 211 215 220 214 212 219 225 230 234 236 245 264 294 317 327 335 339 342 332 317 314 312 320 320 318 326 326 324
130 150 105 101 84 136 163 199 312 23 299 274 275 304 346 246 220 184 154 320 277 220 303 230 145 81 287 299 325 304 342 1 178 199 206 209 223 219 224 225 221 217 213 216 217 218 218 219 219 218 216 215 217 217 219 220 222 224 226 228 227 228 226 222 219 221 221 217 218 219 219 223 217 213 220 226 231 237 236 244 264 291 316 328 336 339 340 334 326 317 313 320 316 310 316 315 317
131 132 90 111 38 12 198 170 102 120 237 260 285 294 332 276 169 136 179 277 277 220 295 288 136 254 258 312 296 259 323 352 332 231 220 218 224 221 227 229 230 223 219 220 220 221 220 221 222 221 219 216 217 218 219 221 223 225 227 229 228 228 229 227 224 224 226 223 223 226 227 228 222 216 222 228 232 241 244 250 266 287 315 329 333 335 336 335 331 322 316 319 315 302 306 312 313
117 110 69 81 36 338 237 177 123 113 249 248 272 311 348 305 129 85 238 169 290 304 353 256 190 288 184 201 261 271 326 337 323 278 246 235 229 224 229 229 234 230 226 225 222 223 221 223 224 223 222 218 218 219 220 221 223 226 227 230 229 228 230 231 230 228 229 230 228 231 233 232 230 221 225 231 234 242 249 257 269 285 307 317 327 330 330 333 332 326 319 321 316 297 299 314 310
67 77 67 44 179 229 214 188 169 154 264 273 327 26 15 308 310 283 266 99 281 311 341 262 242 213 196 227 279 303 317 318 310 286 262 247 235 227 231 230 233 232 229 229 226 225 223 224 225 225 225 222 220 220 221 222 224 226 228 230 230 230 230 233 234 231 232 234 233 235 237 238 238 232 229 233 236 241 248 257 267 278 294 306 319 322 324 330 332 327 320 321 317 299 294 309 302
53 78 88 340 201 200 186 183 194 179 282 285 332 22 359 298 316 320 315 3 327 324 303 276 289 269 248 272 301 312 317 318 308 285 271 260 250 240 237 233 232 234 231 232 232 229 226 226 226 227 228 226 223 221 222 224 225 227 228 229 231 231 231 233 235 234 234 234 236 236 239 242 244 243 237 238 240 240 247 253 262 272 282 299 317 318 320 327 330 327 320 319 318 308 296 296 298
80 112 85 246 203 212 198 178 197 202 295 291 304 346 247 261 289 348 320 305 337 329 295 308 308 291 300 304 311 321 323 322 309 285 277 270 266 261 259 253 243 242 239 239 240 237 233 231 229 228 229 229 225 221 222 225 227 228 228 229 232 233 233 232 233 235 235 234 237 238 239 243 245 246 243 244 244 243 250 254 259 266 271 292 315 315 315 323 328 327 320 316 317 318 307 290 294
130 115 71 247 214 240 232 192 213 225 297 314 304 326 308 263 246 339 315 298 314 296 276 309 305 305 322 314 324 338 332 330 323 300 286 282 284 284 287 290 279 267 257 251 248 245 241 237 235 233 231 231 229 224 222 224 228 231 230 230 231 233 235 234 233 235 237 236 236 237 240 243 245 246 245 245 245 247 251 255 258 258 268 293 311 306 308 321 327 324 319 316 316 320 317 301 292
125 132 183 226 196 266 244 205 225 237 216 266 302 334 313 288 198 221 327 321 310 282 234 220 276 310 312 310 333 355 357 356 356 350 331 315 315 316 313 309 299 288 277 269 260 253 248 242 239 237 235 233 232 228 223 222 226 231 233 233 233 234 236 235 234 236 237 239 237 237 240 243 246 245 245 247 249 250 249 255 257 255 267 289 305 297 298 315 321 317 314 315 314 316 317 310 298
127 217 197 190 155 260 261 212 215 210 139 258 324 322 297 310 342 221 273 298 276 281 124 163 240 284 287 315 340 6 20 16 15 12 5 358 351 347 340 330 315 301 287 277 271 266 258 250 244 239 236 234 233 231 226 223 223 228 232 234 234 234 235 234 235 238 238 239 240 239 238 241 246 245 246 247 250 252 251 254 255 257 270 285 298 286 283 304 312 312 309 309 311 312 314 312 304
188 271 273 217 174 225 274 267 210 129 64 292 287 292 303 339 306 257 235 243 247 282 60 127 246 315 1 32 16 22 29 20 20 15 12 10 5 3 358 351 341 326 306 288 279 273 267 257 250 244 238 235 234 232 229 226 223 226 232 235 235 235 236 235 234 236 234 237 242 242 237 235 240 242 243 242 244 251 251 252 255 258 266 279 284 269 268 298 310 315 308 304 306 307 310 311 308
145 259 306 271 191 218 257 292 300 101 246 260 245 318 309 284 288 332 267 255 271 317 54 120 57 48 52 55 39 32 32 20 17 13 14 14 7 6 4 360 354 344 332 316 294 274 268 261 254 247 241 236 233 231 229 228 227 226 229 233 234 234 237 236 234 232 228 229 237 239 235 233 237 238 241 246 247 252 249 248 253 251 257 277 278 262 267 295 309 316 310 309 307 304 307 308 308
165 223 274 273 226 246 272 294 291 272 246 250 178 282 266 246 252 323 271 280 5 360 46 54 64 59 52 51 39 33 31 20 13 8 12 13 11 14 13 8 4 358 351 345 325 285 265 261 256 251 245 237 233 231 228 227 227 227 228 231 234 237 242 244 247 249 240 230 230 235 236 237 242 241 240 245 249 254 248 242 247 249 257 270 270 265 277 290 300 307 305 312 313 308 307 305 306
209 202 248 279 288 289 301 293 280 273 249 193 226 274 273 263 262 271 272 319 10 26 46 41 64 57 45 47 40 35 31 20 10 5 8 12 16 16 13 12 10 8 3 1 353 319 270 252 254 252 247 240 234 231 229 226 225 226 228 231 235 237 242 250 259 264 259 243 234 236 239 235 235 234 235 237 245 255 247 239 245 254 260 259 262 278 286 280 283 295 299 307 312 310 306 301 303
187 190 251 262 292 303 287 275 280 292 270 202 222 276 290 325 329 259 322 6 356 48 41 31 61 54 43 45 39 39 35 24 13 12 14 13 15 11 8 10 11 13 13 15 15 360 321 270 254 250 244 238 233 229 228 227 225 226 227 231 236 237 235 239 249 256 260 258 246 239 243 241 233 228 229 232 243 254 249 250 254 252 253 252 261 277 275 265 269 291 298 300 306 306 301 298 300
132 195 297 288 313 305 257 270 289 304 282 194 177 260 300 6 280 220 29 14 32 65 38 30 55 47 41 44 39 40 32 25 21 24 21 12 9 6 7 10 10 16 22 26 28 26 19 9 346 254 237 229 226 223 224 226 227 229 230 232 235 242 244 241 244 247 259 274 271 253 247 247 244 235 231 234 244 248 246 257 259 250 246 249 263 276 273 269 275 288 291 294 297 298 298 299 300
86 44 331 306 343 326 276 284 321 8 253 172 147 285 313 294 233 242 16 15 61 70 46 39 52 39 39 39 37 39 27 26 27 26 20 12 12 11 14 16 16 22 29 36 42 45 47 52 62 71 157 213 217 215 216 217 221 227 232 237 238 243 252 257 261 258 266 270 270 271 257 245 252 256 252 256 261 255 246 250 256 253 250 253 273 288 282 277 277 280 284 290 292 294 298 301 301
313 32 28 315 352 327 291 59 15 356 242 166 134 292 293 263 250 300 358 0 54 58 54 48 44 37 35 30 33 33 25 25 26 22 17 16 18 18 20 23 28 31 36 46 51 54 57 60 67 75 86 125 188 204 210 209 212 217 225 240 255 269 267 266 267 256 263 263 255 270 271 254 258 267 274 277 272 268 260 255 261 264 260 259 274 287 282 276 276 278 282 287 289 293 298 301 302
318 346 42 355 355 284 295 325 354 342 348 98 110 216 267 274 282 10 351 349 42 48 53 48 39 36 27 26 28 23 24 25 24 22 20 21 21 24 26 28 34 39 44 50 54 60 65 67 70 75 80 88 104 129 161 180 195 202 207 225 257 279 264 256 258 242 238 250 251 258 263 257 258 262 273 275 265 267 266 264 275 281 273 266 274 284 282 278 276 277 279 282 286 290 294 300 303
24 324 309 339 184 266 308 308 184 206 339 42 101 206 272 276 279 55 10 358 46 61 53 43 39 35 27 27 24 18 17 20 24 22 21 24 25 27 29 32 37 42 48 53 59 64 69 72 74 76 78 80 85 88 92 97 101 110 122 141 217 250 249 256 276 239 231 247 254 256 261 259 259 259 260 261 257 256 257 258 267 274 270 266 272 278 279 278 276 275 277 279 282 286 289 296 301
356 98 249 266 202 272 316 323 24 125 43 31 67 226 280 283 275 51 29 12 53 73 59 47 42 36 32 29 24 24 14 15 20 17 17 23 27 30 33 36 42 47 52 57 62 66 69 72 76 78 79 81 84 87 92 98 100 103 113 120 130 159 28 40 47 53 52 45 45 40 27 15 353 323 296 284 273 265 264 263 265 268 269 269 271 272 273 275 274 272 272 273 276 282 287 293 299
312 17 224 248 214 222 296 309 347 38 74 29 12 239 256 279 290 8 25 17 60 74 62 53 48 40 36 33 32 29 22 21 16 9 14 22 29 34 37 41 47 52 56 60 65 68 70 72 76 81 84 88 90 93 96 98 101 101 99 96 92 85 73 63 63 64 63 60 58 56 50 47 45 41 35 23 3 324 301 294 293 294 294 295 289 282 276 273 272 269 267 270 276 281 286 292 298
212 211 207 254 241 222 263 271 304 21 30 345 325 280 266 276 290 6 20 18 65 74 66 62 52 47 40 36 41 34 29 28 14 12 18 27 35 38 42 46 50 55 59 62 66 70 72 74 78 82 86 90 94 98 100 101 102 100 98 95 91 87 83 79 75 71 68 65 63 63 62 60 57 54 50 46 42 32 19 8 359 355 351 346 337 323 313 303 294 286 283 287 290 291 294 297 301
195 208 189 212 240 244 244 249 264 7 11 308 274 266 269 277 294 5 11 18 66 66 56 57 42 44 41 38 41 35 38 26 11 20 28 35 40 43 46 51 55 59 61 64 67 69 70 72 76 80 82 90 97 99 99 100 99 98 96 92 88 85 83 82 79 77 75 71 67 65 62 61 59 58 54 50 48 45 41 35 29 24 17 10 5 358 348 337 327 322 320 316 311 309 307 307 307
175 205 209 211 227 260 264 265 284 48 42 276 260 266 271 270 307 359 359 31 56 44 45 47 34 40 35 39 38 29 37 21 19 29 34 40 44 47 50 54 60 63 63 65 66 66 67 70 73 74 77 85 90 91 92 91 90 90 89 86 82 80 81 81 79 76 76 74 72 68 64 61 58 56 53 47 44 39 34 30 27 25 22 20 17 14 6 357 350 345 340 332 327 323 318 316 316
179 209 244 258 228 254 270 269 304 356 175 263 294 307 283 282 359 5 17 52 44 26 45 41 32 39 31 37 34 23 25 16 25 30 31 38 43 45 48 52 57 59 60 63 66 67 69 72 73 73 76 80 82 84 86 86 86 88 88 87 85 82 79 79 77 75 75 75 73 70 68 65 62 60 56 51 46 39 33 29 26 25 23 21 19 17 12 5 0 355 351 343 336 329 322 322 323
226 200 221 267 244 281 292 293 338 17 172 265 334 310 280 306 43 25 35 60 51 37 57 49 41 45 36 37 27 21 28 22 24 23 26 34 38 41 45 48 53 56 59 63 67 70 72 73 74 77 79 81 82 85 87 88 89 91 91 89 87 83 78 77 78 76 75 74 71 68 66 63 61 61 58 56 54 52 48 43 39 34 29 26 23 20 16 12 8 3 360 352 342 333 328 329 331
220 190 196 251 237 346 283 292 342 12 137 267 342 298 279 307 64 45 46 71 74 54 58 57 52 53 47 41 26 27 35 27 24 21 23 30 35 39 42 45 50 55 57 60 65 68 70 73 76 79 80 81 84 86 89 91 92 92 91 90 88 86 81 80 80 76 73 71 68 65 61 59 57 56 55 53 53 52 50 48 46 42 39 36 32 29 27 24 20 15 10 4 354 342 334 333 333
242 209 206 231 223 214 229 283 332 344 11 13 66 321 297 293 45 71 58 60 60 40 47 50 34 33 42 40 30 28 34 28 25 23 18 25 33 39 42 47 52 55 56 58 63 67 70 74 77 79 80 80 82 86 90 95 96 96 96 93 89 85 77 72 68 65 66 66 64 62 59 57 55 54 52 50 48 47 46 45 43 40 40 38 35 34 32 30 26 21 17 14 8 352 338 331 329
278 231 210 217 222 224 230 347 6 3 357 349 40 332 293 320 344 173 133 37 42 23 38 46 22 19 25 26 20 18 28 28 26 27 20 25 36 43 48 52 56 59 60 63 68 72 74 76 77 79 79 79 80 83 87 91 91 90 89 85 79 74 67 61 59 60 62 64 63 62 59 56 53 51 49 46 44 43 41 40 38 37 36 35 33 32 31 29 24 21 18 16 15 5 349 338 333
282 248 207 211 212 212 214 151 107 146 261 315 51 163 257 316 324 201 166 71 51 28 39 38 18 19 13 12 14 15 24 24 24 27 24 29 36 43 49 54 60 64 67 72 75 76 78 78 78 78 79 79 79 79 80 81 81 81 81 80 77 75 72 68 67 68 67 68 67 65 62 58 55 53 50 47 45 42 40 38 36 35 34 33 31 29 30 29 26 23 20 17 16 11 4 353 344
244 250 164 171 184 192 192 162 165 211 241 327 8 138 226 290 283 218 149 105 53 38 61 39 18 10 356 358 10 22 26 18 23 23 21 29 35 43 51 57 66 71 74 77 79 79 80 80 80 80 80 80 80 79 78 77 79 81 82 82 81 79 79 77 75 74 72 72 70 68 65 63 59 56 54 51 49 46 44 43 40 37 35 33 30 29 28 25 22 21 18 17 15 12 10 3 353
243 211 123 137 155 165 154 138 164 217 42 305 301 135 228 268 272 282 143 148 234 198 190 195 194 225 260 5 22 30 28 19 23 22 23 33 43 53 60 66 71 75 78 80 81 83 84 84 84 83 82 82 81 81 81 80 81 82 82 83 82 80 79 78 75 72 70 68 67 66 64 62 59 57 55 52 50 48 46 45 44 43 41 38 35 32 29 23 19 16 12 10 7 5 5 1 354
213 130 97 75 77 85 90 112 126 71 54 246 239 185 206 271 281 269 178 233 227 202 204 209 203 217 223 204 132 52 37 26 20 25 35 46 59 69 74 78 78 79 82 84 85 87 87 87 86 84 82 82 82 81 82 81 81 81 81 81 81 80 78 76 73 68 65 63 62 61 60 60 57 55 52 50 48 46 45 44 43 43 42 41 39 37 34 31 27 24 19 13 6 1 356 353 349
140 108 64 45 36 37 39 58 91 78 271 249 232 200 182 263 280 221 188 218 189 168 178 206 213 220 222 218 196 135 56 23 7 25 47 61 75 82 85 84 83 85 87 88 88 88 88 88 87 85 83 82 81 80 80 79 78 78 78 78 78 77 75 73 70 67 63 61 61 59 59 59 57 54 51 48 46 43 41 40 39 39 38 37 36 35 33 32 31 29 27 24 21 18 10 3 355
107 86 72 67 347 10 21 356 43 144 252 264 269 221 165 217 262 228 209 230 189 172 177 183 191 203 207 208 197 182 168 107 26 24 48 71 80 84 87 87 86 88 89 89 90 90 90 89 88 87 84 82 82 80 79 78 76 76 76 75 75 74 72 71 70 69 66 63 62 61 60 58 57 55 52 49 46 41 38 37 35 33 33 32 31 30 29 27 26 25 23 23 23 23 20 16 12
85 95 98 92 328 343 341 317 317 228 247 262 279 189 177 232 245 213 226 253 249 245 213 181 181 188 193 195 193 184 169 143 116 41 40 76 85 85 87 88 88 89 89 91 92 92 92 90 88 87 85 84 83 81 80 78 76 75 74 73 73 72 70 69 68 68 65 62 60 57 56 54 53 51 49 47 44 40 38 35 33 31 29 27 25 23 22 20 19 18 17 16 16 17 16 15 14
140 150 132 128 136 325 281 273 267 271 266 271 286 198 226 268 260 199 241 264 266 262 239 194 180 179 181 182 181 177 173 179 200 224 218 141 112 98 93 92 92 94 95 96 97 95 94 92 89 89 89 86 83 81 79 78 77 75 73 72 71 70 69 67 66 64 61 58 55 53 52 50 49 47 44 42 38 34 32 29 26 24 22 20 17 15 13 11 10 9 8 7 6 6 6 6 6
171 161 132 144 157 169 230 226 215 260 285 296 293 205 193 221 212 223 242 262 284 258 195 166 161 161 156 152 163 181 190 202 225 227 219 188 128 106 101 99 100 103 105 104 103 101 98 96 93 92 92 89 85 83 81 80 79 77 75 73 71 68 66 65 63 60 57 54 51 49 48 45 43 40 37 33 28 24 21 18 14 11 9 8 6 6 4 3 1 360 358 357 356 354 354 355 354
195 131 111 165 184 162 196 202 174 186 294 293 243 224 222 185 164 301 281 332 14 65 135 143 152 146 138 156 182 194 203 212 223 227 223 198 136 115 110 109 110 112 114 112 110 108 105 103 100 96 95 92 88 86 84 82 81 79 76 73 71 69 66 63 60 57 52 49 45 43 41 39 36 32 28 24 19 16 12 9 6 3 1 359 359 358 358 357 356 354 353 351 349 346 345 345 344
151 122 177 222 185 134 129 264 78 86 266 269 195 236 285 311 8 341 20 50 57 112 145 154 164 160 162 191 202 201 208 214 217 222 219 189 137 124 121 119 120 120 119 117 114 111 109 106 103 100 97 94 91 89 87 84 82 80 76 72 69 65 61 58 54 50 45 40 37 35 32 30 26 21 18 14 10 8 5 3 0 358 357 356 355 354 353 352 350 349 348 347 345 342 339 337 337
120 177 217 212 142 103 101 255 346 36 248 271 219 220 259 232 260 335 32 109 172 183 176 167 177 183 190 207 209 208 214 218 225 229 221 191 151 139 136 131 129 125 120 117 115 112 110 106 105 104 101 98 95 92 89 85 81 78 74 70 65 60 55 51 47 41 35 29 26 23 19 16 13 8 4 1 358 356 354 353 351 350 350 350 350 349 348 347 345 344 343 342 341 339 336 334 334
118 187 198 112 153 162 85 169 240 249 251 285 291 236 239 209 202 212 205 199 192 190 187 186 195 196 200 209 210 212 216 219 227 225 215 196 176 162 153 145 137 130 125 120 117 115 113 111 109 106 104 101 98 93 88 82 76 72 68 64 59 53 47 40 36 30 23 19 15 11 8 5 2 358 354 351 348 346 344 343 342 341 342 342 342 343 343 342 340 339 338 337 337 336 334 332 331
65 108 58 62 161 170 146 156 173 192 250 289 291 280 260 232 195 179 195 195 181 180 189 198 199 196 201 204 199 204 208 209 212 203 200 200 189 178 169 159 148 140 136 131 129 127 122 117 113 108 104 101 95 88 81 75 69 65 61 55 48 43 36 28 24 20 15 13 8 3 360 356 353 351 347 344 342 340 337 336 335 335 335 335 335 336 337 336 334 333 333 333 332 332 330 328 327
110 132 180 240 156 139 199 234 127 137 180 250 279 280 267 253 194 182 197 193 180 183 188 193 195 197 204 202 192 196 201 203 205 191 192 199 193 185 178 170 162 155 151 147 143 137 128 122 117 110 103 97 90 83 76 71 66 60 54 47 37 31 25 17 13 9 5 3 358 354 351 346 344 343 339 335 333 332 331 329 329 329 329 330 330 330 331 330 328 328 328 328 328 327 326 324 323
157 176 196 186 160 122 201 262 236 115 180 192 236 276 273 266 230 213 212 195 191 192 188 185 192 198 200 198 195 197 198 200 198 184 187 194 193 189 182 177 175 172 169 162 153 144 135 129 125 119 112 105 98 91 82 72 64 54 45 36 23 14 6 360 357 353 349 346 343 342 338 334 333 331 329 326 324 324 324 324 324 324 325 326 326 326 327 326 325 324 324 324 324 324 322 320 319